Location: La Silve
(44.2414°N, 5.8889°E)
Time: 02:48:23
(UTC+00:00)

Tiangong - Pass Details

Date: 24 June 2021
Orbit: 373 x 386 km, 41.5° (Epoch: 01 August)

Event Time Altitude Azimuth Distance (km) Brightness Sun altitude
Exits shadow 01:57:06 32° 171° (S) 679 1.9 -15.3°
Maximum altitude 01:57:16 32° 164° (SSE) 675 1.9 -15.3°
Drops below altitude 10° 02:00:07 10° 99° (E) 1,393 4.2 -15.0°
Sets 02:02:19 0° 89° (E) 2,250 5.5 -14.8°
